Preview of NWS' New Version of Forecast
This preview is not operational and should not be used for support decisions.

Regional Weather Roundup (RWR)

Issued by National Weather Service (NWS)

                            
000
ASUS45 KBOU 190510
RWRCO 

WEATHER ROUNDUP FOR COLORADO
NATIONAL WEATHER SERVICE DENVER/BOULDER CO
1100 PM MDT THU APR 18 2019

NOTE: "FAIR" INDICATES FEW OR NO CLOUDS BELOW 12000 FEET WITH NO
SIGNIFICANT WEATHER AND/OR OBSTRUCTIONS TO VISIBILITY.

COZ001>005-013-030-031-190600-
...NORTHWEST COLORADO...
  
CITY           SKY/WX    TMP DP  RH WIND       PRES   REMARKS
CRAIG          FAIR      44  30  57 S3        30.28R                  
HAYDEN         FAIR      46  29  51 W7        30.30R                  
MEEKER         FAIR      40  31  70 VRB3      30.30R                  
RANGELY        FAIR      45  32  60 CALM      30.25S                  
RABBIT EARS PA CLOUDY    32  28  86 NW10G20   30.41S WCI  24          
STEAMBOAT SPGS FAIR      43  30  60 E3        30.29R                  
WALDEN         MOCLDY    41  27  56 W5        30.32S                  
$$

COZ006>008-011-190600-
...WEST CENTRAL VALLEYS...
  
CITY           SKY/WX    TMP DP  RH WIND       PRES   REMARKS
GRAND JUNCTION FAIR      54  29  38 NW6       30.22S                  
MONTROSE       FAIR      46  26  45 SE9       30.30R                  
EAGLE          CLOUDY    49  27  42 E7        30.31R                  
RIFLE          FAIR      48  27  44 CALM      30.27R                  
DELTA          FAIR      51  26  38 SE3       30.26R                  
NUCLA          FAIR      50  23  34 SE7       30.32S                  
$$

COZ017>023-064>068-190600-
...SOUTHWEST COLORADO...
  
CITY           SKY/WX    TMP DP  RH WIND       PRES   REMARKS
DURANGO        FAIR      51  16  24 VRB3      30.25R                  
CORTEZ         FAIR      47  25  42 N7        30.29R                  
PAGOSA SPRINGS FAIR      42  21  43 CALM      30.31S                  
TELLURIDE      FAIR      37  23  56 CALM      30.43S                  
WOLF CREEK PAS FAIR      28  14  54 NW5       30.51F WCI  23          
$$

COZ009-010-012-014-032>034-037-058>063-190600-
...CENTRAL COLORADO...
  
CITY           SKY/WX    TMP DP  RH WIND       PRES   REMARKS
ASPEN          FAIR      39  24  55 S7        30.34S                  
BUENA VISTA    FAIR      37  21  53 NW8       30.31F                  
COPPER MTN     CLOUDY    34  23  64 W15       30.46F WCI  24          
BERTHOUD PASS  CLOUDY    27  16  63 NW36G52   30.40F WCI   9          
COTTONWOOD PAS FAIR      37  19  48 W10G21    30.37F                  
GUNNISON       FAIR      40  25  55 N5        30.35R                  
GRANBY         CLOUDY    41  27  57 CALM      30.32F                  
KREMMLING      CLOUDY    39  27  60 CALM      30.32S                  
LEADVILLE      FAIR      35  20  54 N6G22     30.38S WCI  30          
MONARCH PASS   FAIR      30  18  59 W16       30.56F WCI  19          
SALIDA         FAIR      45  19  35 CALM      30.37S                  
SUNLIGHT       MOCLDY    34  19  55 W6        30.49S WCI  29          
WILKERSON PASS FAIR      32  19  59 NW9G21    30.42S WCI  24          
$$

COZ069>075-190600-
...SAN LUIS VALLEY/SANGRE DE CRISTO MOUNTAINS...
  
CITY           SKY/WX    TMP DP  RH WIND       PRES   REMARKS
ALAMOSA        FAIR      45  18  34 NW10      30.28R                  
DEL NORTE      FAIR      46  18  31 W21       30.30F                  
LA VETA PASS   NOT AVBL                                               
SAGUACHE       FAIR      46  21  36 CALM      30.31S                  
$$

COZ035-036-038>040-190600-
...NORTHERN COLORADO FRONT RANGE...
  
CITY           SKY/WX    TMP DP  RH WIND       PRES   REMARKS
DENVER INTL AP MOCLDY    43  28  55 SE6       30.24R                  
AURORA         MOCLDY    40  28  62 S6        30.25S                  
FRONT RANGE AP CLOUDY    47  30  50 SE3       30.24F                  
ERIE MUNI ARPT CLOUDY    50  24  36 CALM      30.30S                  
BOULDER MUN AP CLOUDY    52  27  37 E5        30.24S                  
CENTENNIAL     FAIR      43  27  53 SW5       30.25S                  
BROOMFIELD     FAIR      50  23  34 CALM      30.26S                  
FORT COLLINS   FAIR      47  25  42 SE6       30.25R                  
LONGMONT       CLOUDY    53  26  34 CALM      30.26S                  
$$

COZ041-046-047-076>085-087-088-190600-
...PIKES PEAK/PALMER DIVIDE AND SOUTHERN FOOTHILLS...
  
CITY           SKY/WX    TMP DP  RH WIND       PRES   REMARKS
COLO. SPRINGS  FAIR      45  22  40 N5        30.25S                  
A. F. ACADEMY  FAIR      39  24  55 N5        30.23F                  
SCHRIEVER AFB  NOT AVBL                                               
CHEYENNE MTN   FAIR      44  23  42 NW7       30.21F                  
ELLICOTT         N/A    N/A N/A N/A NE8       30.23F                  
FALCON         FAIR      37  21  53 N7        30.27S                  
FORT CARSON    FAIR      41  24  50 N3        30.25R                  
LIMON          FAIR      30  24  78 N8        30.23F WCI  22          
MONUMENT HILL  FAIR      36  21  55 N6        30.28F                  
CANON CITY     NOT AVBL                                               
WALSENBURG     NOT AVBL                                               
TRINIDAD       FAIR      39  29  67 NW3       30.25S                  
$$

COZ042>045-048>051-090-091-190600-
...NORTHEAST COLORADO...
  
CITY           SKY/WX    TMP DP  RH WIND       PRES   REMARKS
GREELEY ARPT   FAIR      42  27  55 W3        30.25R                  
AKRON          FAIR      40  23  50 NE13      30.20R                  
BURLINGTON     FAIR      39  27  62 N5        30.21R                  
WRAY           FAIR      37  30  75 CALM      30.20R                  
YUMA           NOT AVBL                                               
STERLING       FAIR      39  27  60 E5        30.19R                  
HOLYOKE        FAIR      37  32  81 W5        30.20R                  
FORT MORGAN    NOT AVBL                                               
$$

COZ086-089-092>099-190600-
...SOUTHEAST COLORADO...
  
CITY           SKY/WX    TMP DP  RH WIND       PRES   REMARKS
PUEBLO         FAIR      45  24  43 E6        30.23R                  
LA JUNTA       FAIR      47  23  38 E7        30.22R                  
LAMAR          FAIR      41  26  55 CALM      30.20R                  
SPRINGFIELD      N/A     34  24  67 NW9       30.21R WCI  27          
$$